• In Austria
  • List of Countries
  • For 7 days
  • Water Temperature
  • Satellite Maps
  • Weather Map
  • News
  • Weather Widgets
  • user-avatar
    Login

    Hourly Weather Tunceli

    Today, 22 July, Sunday

    Time Temperature Precipitation Wind Pressure Humidity
    00:00 +24°C° 0.1 mm 3 mps 669 mmHg 56%
    01:00 +22°C° 0 mm 3 mps 668 mmHg 60%
    02:00 +22°C° 0 mm 3 mps 668 mmHg 63%
    03:00 +21°C° 0 mm 3 mps 668 mmHg 66%
    04:00 +21°C° 0 mm 3 mps 668 mmHg 67%
    05:00 +20°C° 0 mm 3 mps 668 mmHg 68%
    06:00 +20°C° 0 mm 3 mps 668 mmHg 69%
    07:00 +22°C° 0 mm 3 mps 669 mmHg 61%
    08:00 +25°C° 0 mm 3 mps 669 mmHg 53%
    09:00 +27°C° 0 mm 3 mps 669 mmHg 45%
    10:00 +28°C° 0 mm 3 mps 669 mmHg 41%
    11:00 +30°C° 0 mm 3 mps 669 mmHg 36%
    12:00 +33°C° 0 mm 3 mps 669 mmHg 32%
    13:00 +33°C° 0.1 mm 3 mps 669 mmHg 30%
    14:00 +34°C° 0.1 mm 3 mps 669 mmHg 29%
    15:00 +34°C° 0.1 mm 3 mps 669 mmHg 27%
    16:00 +34°C° 0.1 mm 3 mps 668 mmHg 29%
    17:00 +33°C° 0.1 mm 4 mps 668 mmHg 30%
    18:00 +33°C° 0.1 mm 4 mps 668 mmHg 32%
    19:00 +30°C° 0.1 mm 4 mps 668 mmHg 37%
    20:00 +28°C° 0.1 mm 4 mps 668 mmHg 43%
    21:00 +26°C° 0.1 mm 3 mps 668 mmHg 49%
    22:00 +25°C° 0 mm 3 mps 668 mmHg 52%
    23:00 +24°C° 0 mm 3 mps 668 mmHg 56%

    Tomorrow, 23 July, Monday

    Time Temperature Precipitation Wind Pressure Humidity
    00:00 +22°C° 0 mm 3 mps 668 mmHg 59%
    01:00 +22°C° 0 mm 3 mps 668 mmHg 62%
    02:00 +21°C° 0 mm 3 mps 668 mmHg 64%
    03:00 +20°C° 0 mm 3 mps 668 mmHg 66%
    04:00 +20°C° 0 mm 3 mps 668 mmHg 67%
    05:00 +20°C° 0 mm 2 mps 668 mmHg 68%
    06:00 +19°C° 0 mm 2 mps 668 mmHg 68%
    07:00 +21°C° 0 mm 2 mps 668 mmHg 60%
    08:00 +24°C° 0 mm 2 mps 668 mmHg 53%
    09:00 +26°C° 0 mm 2 mps 668 mmHg 45%
    10:00 +28°C° 0 mm 2 mps 668 mmHg 40%
    11:00 +29°C° 0 mm 2 mps 668 mmHg 35%
    12:00 +31°C° 0 mm 2 mps 668 mmHg 30%
    13:00 +33°C° 0 mm 3 mps 668 mmHg 27%
    14:00 +34°C° 0 mm 3 mps 668 mmHg 24%
    15:00 +34°C° 0 mm 3 mps 668 mmHg 21%
    16:00 +34°C° 0 mm 3 mps 667 mmHg 22%
    17:00 +34°C° 0 mm 4 mps 667 mmHg 23%
    18:00 +33°C° 0 mm 4 mps 667 mmHg 23%
    19:00 +30°C° 0 mm 3 mps 667 mmHg 28%
    20:00 +29°C° 0 mm 3 mps 667 mmHg 33%
    21:00 +27°C° 0 mm 3 mps 667 mmHg 38%
    22:00 +26°C° 0 mm 3 mps 667 mmHg 42%
    23:00 +25°C° 0 mm 3 mps 667 mmHg 47%

    Day after tomorrow, 24 July, Tuesday

    Time Temperature Precipitation Wind Pressure Humidity
    00:00 +24°C° 0 mm 3 mps 667 mmHg 51%
    01:00 +23°C° 0 mm 2 mps 667 mmHg 55%
    02:00 +23°C° 0 mm 2 mps 667 mmHg 58%
    03:00 +21°C° 0 mm 2 mps 667 mmHg 62%
    04:00 +21°C° 0 mm 2 mps 667 mmHg 62%
    05:00 +21°C° 0 mm 2 mps 667 mmHg 63%
    06:00 +21°C° 0 mm 2 mps 667 mmHg 64%
    07:00 +24°C° 0 mm 1 mps 667 mmHg 55%
    08:00 +26°C° 0 mm 1 mps 668 mmHg 47%
    09:00 +28°C° 0 mm 1 mps 668 mmHg 38%
    10:00 +30°C° 0 mm 1 mps 669 mmHg 33%
    11:00 +31°C° 0 mm 1 mps 669 mmHg 28%
    12:00 +34°C° 0 mm 2 mps 669 mmHg 23%
    13:00 +35°C° 0 mm 2 mps 668 mmHg 21%
    14:00 +35°C° 0 mm 2 mps 668 mmHg 18%
    15:00 +36°C° 0 mm 3 mps 668 mmHg 16%
    16:00 +36°C° 0 mm 3 mps 668 mmHg 16%
    17:00 +36°C° 0 mm 3 mps 668 mmHg 16%
    18:00 +36°C° 0 mm 3 mps 668 mmHg 16%
    19:00 +32°C° 0 mm 2 mps 668 mmHg 18%
    20:00 +30°C° 0 mm 2 mps 667 mmHg 21%
    21:00 +28°C° 0 mm 1 mps 667 mmHg 23%
    22:00 +27°C° 0 mm 1 mps 667 mmHg 23%
    23:00 +27°C° 0 mm 1 mps 667 mmHg 23%

    25 July, Wednesday

    Time Temperature Precipitation Wind Pressure Humidity
    00:00 +26°C° 0 mm 1 mps 667 mmHg 24%
    01:00 +26°C° 0 mm 2 mps 667 mmHg 24%
    02:00 +25°C° 0 mm 2 mps 667 mmHg 24%
    03:00 +25°C° 0 mm 2 mps 667 mmHg 25%
    04:00 +25°C° 0 mm 2 mps 667 mmHg 26%
    05:00 +25°C° 0 mm 2 mps 667 mmHg 28%
    06:00 +25°C° 0 mm 2 mps 667 mmHg 29%
    07:00 +27°C° 0 mm 2 mps 668 mmHg 27%
    08:00 +29°C° 0 mm 2 mps 668 mmHg 25%
    09:00 +32°C° 0 mm 2 mps 669 mmHg 23%
    10:00 +34°C° 0 mm 3 mps 669 mmHg 20%
    11:00 +35°C° 0 mm 3 mps 669 mmHg 17%
    12:00 +36°C° 0 mm 4 mps 669 mmHg 14%
    13:00 +37°C° 0 mm 4 mps 669 mmHg 13%
    14:00 +37°C° 0 mm 4 mps 668 mmHg 12%
    15:00 +38°C° 0 mm 4 mps 668 mmHg 11%
    16:00 +37°C° 0 mm 4 mps 668 mmHg 12%
    17:00 +37°C° 0 mm 3 mps 668 mmHg 13%
    18:00 +36°C° 0 mm 3 mps 668 mmHg 14%
    19:00 +34°C° 0 mm 2 mps 668 mmHg 16%
    20:00 +31°C° 0 mm 2 mps 668 mmHg 19%
    21:00 +28°C° 0 mm 1 mps 668 mmHg 22%
    22:00 +27°C° 0 mm 1 mps 668 mmHg 24%
    23:00 +27°C° 0 mm 1 mps 668 mmHg 27%

    26 July, Thursday

    Time Temperature Precipitation Wind Pressure Humidity
    00:00 +26°C° 0 mm 2 mps 668 mmHg 29%
    01:00 +25°C° 0 mm 2 mps 668 mmHg 33%
    02:00 +25°C° 0 mm 2 mps 668 mmHg 37%
    03:00 +24°C° 0 mm 2 mps 667 mmHg 41%
    04:00 +24°C° 0 mm 2 mps 668 mmHg 43%
    05:00 +24°C° 0 mm 2 mps 668 mmHg 45%
    06:00 +24°C° 0 mm 2 mps 668 mmHg 47%
    07:00 +26°C° 0 mm 1 mps 669 mmHg 40%
    08:00 +29°C° 0 mm 1 mps 669 mmHg 33%
    09:00 +31°C° 0 mm 1 mps 669 mmHg 26%
    10:00 +32°C° 0 mm 1 mps 670 mmHg 22%
    11:00 +34°C° 0 mm 1 mps 670 mmHg 19%
    12:00 +35°C° 0 mm 1 mps 670 mmHg 15%
    13:00 +36°C° 0 mm 1 mps 669 mmHg 14%
    14:00 +37°C° 0 mm 1 mps 669 mmHg 12%
    15:00 +39°C° 0 mm 2 mps 669 mmHg 11%
    16:00 +38°C° 0 mm 2 mps 669 mmHg 11%
    17:00 +38°C° 0 mm 2 mps 669 mmHg 11%
    18:00 +38°C° 0 mm 2 mps 669 mmHg 11%
    19:00 +35°C° 0 mm 2 mps 669 mmHg 15%
    20:00 +32°C° 0 mm 1 mps 668 mmHg 18%
    21:00 +29°C° 0 mm 1 mps 668 mmHg 21%
    22:00 +28°C° 0 mm 1 mps 668 mmHg 26%
    23:00 +28°C° 0 mm 2 mps 668 mmHg 31%

    27 July, Friday

    Time Temperature Precipitation Wind Pressure Humidity
    00:00 +27°C° 0 mm 2 mps 668 mmHg 36%
    01:00 +26°C° 0 mm 2 mps 668 mmHg 42%
    02:00 +25°C° 0 mm 2 mps 668 mmHg 47%
    03:00 +25°C° 0 mm 2 mps 668 mmHg 53%
    04:00 +24°C° 0 mm 2 mps 668 mmHg 56%
    05:00 +24°C° 0 mm 2 mps 668 mmHg 59%
    06:00 +24°C° 0 mm 2 mps 668 mmHg 62%
    07:00 +26°C° 0 mm 2 mps 669 mmHg 52%
    08:00 +29°C° 0 mm 2 mps 669 mmHg 43%
    09:00 +31°C° 0 mm 1 mps 670 mmHg 33%
    10:00 +33°C° 0 mm 1 mps 670 mmHg 27%
    11:00 +34°C° 0 mm 1 mps 670 mmHg 22%
    12:00 +36°C° 0 mm 1 mps 670 mmHg 16%
    13:00 +37°C° 0 mm 1 mps 669 mmHg 15%
    14:00 +37°C° 0 mm 1 mps 669 mmHg 13%
    15:00 +39°C° 0 mm 1 mps 669 mmHg 12%
    16:00 +39°C° 0 mm 2 mps 669 mmHg 13%
    17:00 +38°C° 0 mm 2 mps 669 mmHg 13%
    18:00 +38°C° 0 mm 2 mps 669 mmHg 14%
    19:00 +36°C° 0 mm 2 mps 668 mmHg 20%
    20:00 +33°C° 0 mm 3 mps 668 mmHg 26%
    21:00 +30°C° 0 mm 3 mps 668 mmHg 32%
    22:00 +29°C° 0 mm 3 mps 668 mmHg 39%
    23:00 +28°C° 0 mm 3 mps 668 mmHg 45%
    Show more